Regional Weather Roundup
Issued by NWS Jackson, KY

Home | Current Version | Previous Version | Graphics & Text | Print | Product List | Glossary On
Versions: 1 2 3 4 5 6 7 8 9 10 11 12 13 14 15 16 17 18 19 20 21 22 23 24 25 26 27 28 29 30 31 32 33 34 35 36 37 38 39 40 41 42 43 44 45 46 47 48 49 50
994
ASUS43 KJKL 231510
RWRJKL

EAST KENTUCKY HOURLY WEATHER ROUNDUP
NATIONAL WEATHER SERVICE JACKSON KY
1100 AM EDT SAT SEP 23 2017

NOTE: "FAIR" INDICATES FEW OR NO CLOUDS BELOW 12,000 FEET WITH
NO SIGNIFICANT WEATHER AND/OR OBSTRUCTIONS TO VISIBILITY.

* THESE REPORTS ARE NOT UNDER NWS QUALITY CONTROL AND MAY NOT
  REPORT WEATHER SUCH AS PRECIPITATION AND FOG.

KYZ079-080-083-085-087-088-110-112-115-119-120-231600
...EASTERN KENTUCKY...

CITY           SKY/WX    TMP DP  RH WIND       PRES   REMARKS
JACKSON        SUNNY     76  67  73 CALM      30.15S
LONDON         SUNNY     79  63  57 CALM      30.14R
SOMERSET*      SUNNY     75  64  69 CALM      30.14S
MONTICELLO*    SUNNY     77  68  73 VRB3      30.14S
WILLIAMSBURG*  SUNNY     75  68  78 CALM      30.13S
MIDDLESBORO*   MOSUNNY   68  65  93 CALM      30.14F
HARLAN APT*    SUNNY     73  63  68 CALM      30.16S
PIKE CO APT*     N/A     71  71 100 CALM      30.15S
BIG SANDY APT* SUNNY     71  69  95 CALM      30.15S
MOREHEAD APT*  SUNNY     79  66  65 CALM      30.16S
$$

KYZ035-036-041-042-044-050-067-078-099-231600
...CENTRAL KENTUCKY...

CITY           SKY/WX    TMP DP  RH WIND       PRES   REMARKS
MT STERLING*   SUNNY     79  64  61 E7        30.16S
FLEMING/MASON* SUNNY     78  67  69 NE6       30.16S
DANVILLE*      SUNNY     75  66  73 CALM      30.15S
LEXINGTON      SUNNY     80  68  66 NE8       30.14S
FRANKFORT      SUNNY     79  66  64 E6        30.12S
LOUISVILLE     SUNNY     81  66  60 VRB5      30.11S
LEBANON*         N/A     77  66  69 CALM      30.13S
GLASGOW*       SUNNY     78  67  69 NE3       30.11S
BOWLING GREEN  MOSUNNY   79  70  74 NE3       30.10R
$$

KYZ091>093-OHZ055-061-077-WVZ005-015-034-035-042-231600
...SOUTHERN OHIO/WEST VIRGINIA...

CITY           SKY/WX    TMP DP  RH WIND       PRES   REMARKS
COVINGTON      SUNNY     82  68  62 NE5       30.14S
COLUMBUS       SUNNY     80  64  58 CALM      30.14S
DAYTON         SUNNY     82  65  56 NE3       30.16S
WILMINGTON     SUNNY     80  68  66 NE6       30.15S
HUNTINGTON     SUNNY     76  66  71 CALM      30.13S
CHARLESTON     MOSUNNY   76  64  66 NE5       30.14R
PINEVILLE*     SUNNY     75  65  71 MISG      30.21S
BECKLEY        SUNNY     76  59  55 E5        30.19S
BLUEFIELD      SUNNY     71  60  68 CALM      30.21S
LOGAN CO APT*    N/A     75  66  73 CALM      30.15S
$$

VAZ002-007-008-TNZ017-027-036-066-071-231600
...SOUTHWEST VIRGINIA/EAST TENNESSEE...

CITY           SKY/WX    TMP DP  RH WIND       PRES   REMARKS
WISE*          SUNNY     79  61  53 CALM      30.21S
JONESVILLE*      N/A     77  66  69 S3        30.17R
ABINGDON*      SUNNY     79  65  63 SE6       30.17S
BRISTOL        SUNNY     76  66  71 CALM      30.14S
MORRISTOWN*    SUNNY     79  66  65 CALM      30.12S
SEVIERVILLE*   SUNNY     75  63  64 CALM      30.12R
KNOXVILLE      PTSUNNY   75  66  73 NE6       30.11R
LAFOLLETTE*    SUNNY     77  66  69 CALM      30.16S
OAK RIDGE      CLOUDY    77  66  68 VRB3      30.13R
CROSSVILLE     SUNNY     78  65  63 W5        30.16R
NASHVILLE      SUNNY     81  69  67 CALM      30.09R
$$

...KEY TO REMARKS...
VSB - VISIBILITY IN MILES
WCI - WIND CHILL INDEX
HX  - HEAT INDEX

$$




USA.gov is the U.S. government's official web portal to all federal, state and local government web resources and services.